This is the latest recevied weather packets stored in our database for station/object CE4JVU-10. If no packets are shown the sender has not sent any weather packets the latest 10 day(s).
| Time | Temp. | Humidity | Pressure | Rain* | Wind** | Luminosity | Snow |
|---|---|---|---|---|---|---|---|
| 1787579496 | 17.78° C | 61% | 983.4 hPa | - | - | - | - |
| 1787578596 | 17.78° C | 64% | 983.3 hPa | - | - | - | - |
| 1787577696 | 18.33° C | 63% | 983.4 hPa | - | - | - | - |
| 1787576796 | 18.33° C | 61% | 983.5 hPa | - | - | - | - |
| 1787575896 | 18.89° C | 65% | 982.5 hPa | - | - | - | - |
| 1787574996 | 18.33° C | 66% | 983.1 hPa | - | - | - | - |
| 1787574096 | 18.89° C | 66% | 983.3 hPa | - | - | - | - |
| 1787573196 | 18.33° C | 66% | 983.4 hPa | - | - | - | - |
| 1787572295 | 18.33° C | 68% | 983.2 hPa | - | - | - | - |
| 1787571395 | 18.33° C | 68% | 982.8 hPa | - | - | - | - |
| 1787570495 | 17.78° C | 68% | 982.8 hPa | - | - | - | - |
| 1787569595 | 17.78° C | 69% | 982.3 hPa | - | - | - | - |
| 1787568695 | 17.78° C | 69% | 982.5 hPa | - | - | - | - |
| 1787567795 | 17.78° C | 69% | 982.4 hPa | - | - | - | - |
| 1787566895 | 17.78° C | 69% | 982.4 hPa | - | - | - | - |
| 1787565995 | 17.78° C | 69% | 982.5 hPa | - | - | - | - |
| 1787565094 | 17.78° C | 69% | 982.1 hPa | - | - | - | - |
| 1787564194 | 17.78° C | 69% | 982.7 hPa | - | - | - | - |
| 1787563294 | 17.78° C | 69% | 982.8 hPa | - | - | - | - |
| 1787562394 | 17.78° C | 69% | 982.5 hPa | - | - | - | - |
| 1787561494 | 17.78° C | 68% | 982.6 hPa | - | - | - | - |
| 1787560594 | 17.78° C | 67% | 982.8 hPa | - | - | - | - |
| 1787559693 | 17.78° C | 67% | 982.8 hPa | - | - | - | - |
| 1787558794 | 17.78° C | 67% | 982.4 hPa | - | - | - | - |
| 1787557894 | 18.33° C | 67% | 982 hPa | - | - | - | - |
* Rain since midnight (hover to see other rain measurements)
** Current wind speed in m/s (hover to see current wind gust speed)